[[{"header":{"parameterUnit":"m.s-1","parameterCategory":1,"la1":30.2991,"la2":30.254,"lo1":-89.0895,"lo2":-89.0444,"dy":0.0017,"dx":0.0017,"nx":28,"ny":28,"refTime":"2025-04-06T21:00:00:Z","depth":0,"parameterNumber":2,"parameterNumberName":"U-component_of_WINDS"},"data":[0,0,0,0,0,0,0,0,0,0,0,0,0,0,0,0,0,0,0,0,0,0,0,0,0,0,0,0,0,0,0,0,0,0,0,0,0,0,0,0,0,0,0,0,0,0,0,0,0,0,0,0,0,0,0,0,0,0,-1.3653,-1.3654,0,-1.3684,-1.3685,-1.3685,-1.3645,-1.3644,-1.3643,-1.3641,-1.3675,-1.3678,-1.368,0,0,0,0,0,0,0,0,0,0,0,0,0,-1.3562,-1.3564,-1.3653,-1.3654,-1.3654,-1.3684,-1.3685,-1.3685,-1.3646,-1.3644,-1.3642,-1.364,-1.3675,-1.3677,-1.368,0,0,0,0,0,0,0,0,0,0,0,0,0,-1.3598,-1.3564,-1.3653,-1.3638,-1.3637,-1.3684,-1.3685,-1.3685,-1.3646,-1.3644,-1.3642,-1.364,-1.3674,-1.3677,-1.368,-1.3745,0,0,-1.3691,-1.3692,0,0,0,0,0,0,0,0,-1.3596,-1.3601,-1.364,-1.3639,-1.3638,-1.3659,-1.3665,-1.3705,-1.3647,-1.3643,-1.3641,-1.3639,-1.3672,-1.3675,-1.3686,-1.3747,-1.3748,-1.3691,-1.3693,-1.3695,-1.3696,0,0,0,0,0,0,0,-1.3594,-1.36,-1.3666,-1.364,-1.3639,-1.363,-1.3633,-1.3672,-1.3669,-1.3643,-1.364,-1.3644,-1.3671,-1.3683,-1.3686,-1.3749,-1.3691,-1.3694,-1.3696,-1.3697,-1.3865,-1.3868,0,0,0,0,0,0,-1.3593,-1.3598,-1.3665,-1.3666,-1.3611,-1.3634,-1.3637,-1.3654,-1.3669,-1.3669,-1.3646,-1.3642,-1.3678,-1.3682,-1.3687,-1.3765,-1.3695,-1.3698,-1.37,-1.3863,-1.3866,-1.3868,0,0,0,0,0,0,-1.3591,-1.3599,-1.3663,-1.3632,-1.3639,-1.3637,-1.3658,-1.3656,-1.3668,-1.3671,-1.367,-1.3659,-1.3676,-1.3683,-1.3731,-1.3766,-1.3699,-1.3702,-1.386,-1.3864,-1.3867,-1.3921,0,0,0,0,0,0,-1.3588,-1.3598,-1.3622,-1.3632,-1.3641,-1.3706,-1.366,-1.3658,-1.3674,-1.3669,-1.3683,-1.3683,-1.3675,-1.3726,-1.3735,-1.377,-1.3705,-1.3857,-1.3862,-1.3866,-1.3916,-1.3926,-1.3935,0,0,0,0,0,-1.3585,-1.3637,-1.3624,-1.3632,-1.3671,-1.3708,-1.3713,-1.3703,-1.3676,-1.3701,-1.3703,-1.3682,-1.376,-1.3732,-1.3741,-1.3777,-1.3855,-1.386,-1.3866,-1.3912,-1.3924,-1.3934,0,0,0,0,0,0,-1.3632,-1.3638,-1.3624,-1.368,-1.3694,-1.3701,-1.3732,-1.3715,-1.3738,-1.3733,-1.3719,-1.3723,-1.3775,-1.378,-1.3748,-1.3841,-1.3803,-1.3811,-1.3836,-1.3847,-1.3856,-1.3855,-1.3708,0,0,0,0,0,-1.3648,-1.3677,-1.3681,-1.373,-1.3738,-1.3734,-1.375,-1.374,-1.3755,-1.3761,-1.3766,-1.3781,-1.3809,-1.3828,-1.3854,-1.3916,-1.3919,-1.3946,-1.3955,-1.3962,-1.397,-1.4005,-1.4017,-1.3886,-1.3886,-1.3886,0,0,-1.3683,-1.369,-1.371,-1.374,-1.375,-1.3781,-1.3739,-1.3774,-1.3798,-1.3766,-1.3813,-1.3817,-1.3833,-1.3889,-1.3914,-1.3895,-1.4006,-1.3969,-1.3975,-1.3979,-1.4011,-1.4024,-1.4035,-1.389,-1.3889,-1.3889,0,0,-1.3764,-1.3771,-1.3814,-1.3824,-1.3839,-1.3836,-1.3846,-1.3856,-1.3858,-1.3904,-1.3881,-1.3909,-1.3957,-1.397,-1.3983,-1.4068,-1.4051,-1.4077,-1.4126,-1.416,-1.417,-1.4179,-1.4212,-1.4223,-1.4084,-1.4084,-1.4084,0,-1.3806,-1.3852,-1.3838,-1.3874,-1.3889,-1.3861,-1.3905,-1.3915,-1.3938,-1.395,-1.3928,-1.3988,-1.3997,-1.4056,-1.4077,-1.4088,-1.41,-1.4076,-1.417,-1.4179,-1.4187,-1.4218,-1.423,-1.4087,-1.4087,-1.4086,-1.4086,0,-1.3904,-1.3936,-1.3968,-1.3991,-1.4009,-1.4049,-1.4042,-1.4062,-1.4051,-1.405,-1.4098,-1.4107,-1.4135,-1.4148,-1.4138,-1.4206,-1.4195,-1.4171,-1.4134,-1.4203,-1.4232,-1.4243,-1.4092,-1.4091,-1.409,-1.4089,0,0,-1.4016,-1.403,-1.4042,-1.4053,-1.4067,-1.4092,-1.4131,-1.4157,-1.4176,-1.4192,-1.4225,-1.4267,-1.4245,-1.426,-1.4251,-1.428,-1.4349,-1.4254,-1.4254,-1.4273,-1.4428,-1.4447,-1.4461,-1.4337,-1.4339,-1.434,-1.4427,0,-1.4098,-1.4165,-1.4154,-1.4219,-1.4249,-1.4223,-1.4257,-1.427,-1.427,-1.4297,-1.4297,-1.4327,-1.4296,-1.4305,-1.4333,-1.4335,-1.4381,-1.4328,-1.437,-1.4371,-1.4369,-1.4475,-1.4495,-1.4577,-1.4438,-1.444,-1.4441,0,-1.4203,-1.4223,-1.4292,-1.4302,-1.4314,-1.4345,-1.4369,-1.4394,-1.4408,-1.4407,-1.4423,-1.4408,-1.4448,-1.4408,-1.4464,-1.4428,-1.4444,-1.4448,-1.4451,-1.4456,-1.4412,-1.4486,-1.4602,-1.4616,-1.4458,-1.4457,-1.4456,0,-1.4281,-1.4325,-1.4372,-1.4381,-1.4394,-1.4416,-1.4423,-1.4435,-1.4452,-1.4472,-1.4484,-1.4509,-1.4523,-1.4544,-1.4537,-1.4508,-1.4594,-1.4553,-1.4596,-1.4596,-1.4617,-1.4616,-1.474,-1.4624,-1.4623,-1.4623,-1.4623,0,-1.4375,-1.4419,-1.4407,-1.4437,-1.4485,-1.4471,-1.4519,-1.4522,-1.4533,-1.4564,-1.4541,-1.457,-1.4558,-1.4586,-1.4581,-1.4629,-1.4635,-1.4636,-1.4634,-1.4639,-1.4639,-1.4651,-1.4646,-1.4626,-1.4626,-1.4625,-1.4624,0,-1.4471,-1.4465,-1.4515,-1.4522,-1.4525,-1.4561,-1.4567,-1.4595,-1.4593,-1.4632,-1.464,-1.4638,-1.467,-1.4664,-1.47,-1.4696,-1.4757,-1.4747,-1.4752,-1.4751,-1.4794,-1.4791,-1.4932,-1.4951,-1.482,-1.4821,-1.4822,0,-1.4533,-1.4566,-1.4577,-1.4595,-1.4603,-1.4632,-1.465,-1.4637,-1.4656,-1.4675,-1.4701,-1.4731,-1.4755,-1.4807,-1.481,-1.4837,-1.4829,-1.4877,-1.4833,-1.4838,-1.4833,-1.4832,-1.4836,-1.4886,-1.4888,-1.4889,-1.489,0,-1.4644,-1.4639,-1.4664,-1.4689,-1.471,-1.4728,-1.4745,-1.4761,-1.475,-1.4773,-1.4805,-1.4824,-1.486,-1.4891,-1.4916,-1.4923,-1.4906,-1.4903,-1.4915,-1.4921,-1.4924,-1.4925,-1.4778,-1.49,-1.4899,-1.4899,-1.4898,-1.4898,-1.4726,-1.4755,-1.4767,-1.4796,-1.4807,-1.4823,-1.485,-1.4851,-1.4878,-1.4906,-1.4897,-1.4935,-1.4949,-1.4981,-1.4991,-1.5021,-1.5003,-1.502,-1.5024,-1.5029,-1.5036,-1.4917,-1.5025,-1.5025,-1.5024,-1.5024,-1.5024,0,-1.4838,-1.4844,-1.4871,-1.4895,-1.4918,-1.4898,-1.4915,-1.4936,-1.4969,-1.4983,-1.5007,-1.5045,-1.5074,-1.5078,-1.5107,-1.513,-1.5123,-1.5138,-1.5138,-1.514,-1.5048,-1.5036,-1.5144,-1.5144,-1.5144,-1.5144,-1.5144,-1.5144,-1.4899,-1.4947,-1.4944,-1.4997,-1.5003,-1.5039,-1.5051,-1.5066,-1.5078,-1.5121,-1.5145,-1.5147,-1.5158,-1.5186,-1.5213,-1.5214,-1.5226,-1.5245,-1.5243,-1.5158,-1.5146,-1.5135,-1.5124,-1.5248,-1.5248,-1.5333,-1.5333,-1.5334]},{"header":{"parameterUnit":"m.s-1","parameterCategory":1,"la1":30.2991,"la2":30.254,"lo1":-89.0895,"lo2":-89.0444,"dy":0.0017,"dx":0.0017,"nx":28,"ny":28,"refTime":"2025-04-06T21:00:00:Z","depth":0,"parameterNumber":3,"parameterNumberName":"V-component_of_WINDS"},"data":[0,0,0,0,0,0,0,0,0,0,0,0,0,0,0,0,0,0,0,0,0,0,0,0,0,0,0,0,0,0,0,0,0,0,0,0,0,0,0,0,0,0,0,0,0,0,0,0,0,0,0,0,0,0,0,0,0,0,-4.7678,-4.7679,0,-4.7739,-4.774,-4.7741,-4.7696,-4.7694,-4.7692,-4.769,-4.775,-4.7753,-4.7756,0,0,0,0,0,0,0,0,0,0,0,0,0,-4.7519,-4.7522,-4.7678,-4.7679,-4.7679,-4.7739,-4.774,-4.7741,-4.7696,-4.7694,-4.7691,-4.7689,-4.7749,-4.7753,-4.7757,0,0,0,0,0,0,0,0,0,0,0,0,0,-4.7585,-4.7523,-4.7678,-4.7664,-4.7664,-4.7739,-4.774,-4.7741,-4.7697,-4.7694,-4.7691,-4.7688,-4.7747,-4.7752,-4.7757,-4.7848,0,0,-4.7773,-4.7775,0,0,0,0,0,0,0,0,-4.7581,-4.7591,-4.7666,-4.7665,-4.7665,-4.7707,-4.7706,-4.7777,-4.7697,-4.7684,-4.769,-4.7686,-4.7738,-4.7743,-4.7761,-4.7851,-4.7854,-4.7774,-4.7777,-4.7779,-4.778,0,0,0,0,0,0,0,-4.7577,-4.7588,-4.7702,-4.7667,-4.7666,-4.7654,-4.7661,-4.7719,-4.7727,-4.7685,-4.7682,-4.769,-4.7737,-4.7757,-4.7762,-4.7855,-4.7773,-4.7778,-4.7781,-4.7783,-4.8024,-4.8027,0,0,0,0,0,0,-4.7574,-4.7585,-4.77,-4.7704,-4.7615,-4.766,-4.7667,-4.7696,-4.7726,-4.7728,-4.7692,-4.7688,-4.7749,-4.7756,-4.7764,-4.7874,-4.7779,-4.7784,-4.7787,-4.802,-4.8024,-4.8028,0,0,0,0,0,0,-4.7571,-4.7585,-4.7698,-4.7644,-4.7657,-4.7666,-4.7699,-4.7699,-4.7719,-4.7732,-4.7732,-4.7711,-4.7747,-4.7757,-4.7828,-4.7876,-4.7786,-4.7791,-4.8017,-4.8022,-4.8026,-4.8094,0,0,0,0,0,0,-4.7566,-4.7584,-4.7619,-4.7645,-4.766,-4.7762,-4.7702,-4.7702,-4.7728,-4.7722,-4.775,-4.7751,-4.7746,-4.7821,-4.7834,-4.7881,-4.7795,-4.8012,-4.8019,-4.8025,-4.8088,-4.8101,-4.8112,0,0,0,0,0,-4.7561,-4.7635,-4.7621,-4.7635,-4.7704,-4.7765,-4.7773,-4.7766,-4.7732,-4.7767,-4.7776,-4.775,-4.7868,-4.7829,-4.7842,-4.7892,-4.8009,-4.8017,-4.8024,-4.8082,-4.8098,-4.8112,0,0,0,0,0,0,-4.7613,-4.7638,-4.7623,-4.7707,-4.7735,-4.7757,-4.7801,-4.7783,-4.782,-4.7813,-4.7801,-4.7808,-4.7883,-4.7894,-4.785,-4.7983,-4.7933,-4.7944,-4.7973,-4.7988,-4.8,-4.7996,-4.7799,0,0,0,0,0,-4.7634,-4.7682,-4.7701,-4.7773,-4.7788,-4.7792,-4.7818,-4.7811,-4.7838,-4.7849,-4.7862,-4.7888,-4.7932,-4.796,-4.8,-4.8089,-4.8095,-4.813,-4.8142,-4.8152,-4.8162,-4.8211,-4.8227,-4.8052,-4.8052,-4.8052,0,0,-4.7679,-4.7698,-4.7729,-4.7784,-4.7804,-4.7854,-4.7802,-4.7856,-4.7892,-4.7856,-4.7925,-4.7936,-4.7965,-4.8046,-4.8082,-4.8057,-4.8211,-4.8161,-4.8169,-4.8174,-4.822,-4.8236,-4.8251,-4.8057,-4.8057,-4.8056,0,0,-4.7786,-4.7805,-4.7869,-4.789,-4.7922,-4.7924,-4.794,-4.7965,-4.7972,-4.8041,-4.8016,-4.8058,-4.8132,-4.8154,-4.8175,-4.8292,-4.827,-4.8305,-4.8369,-4.8416,-4.843,-4.8442,-4.8485,-4.8501,-4.8314,-4.8314,-4.8314,0,-4.7837,-4.7911,-4.7903,-4.796,-4.7985,-4.7956,-4.8021,-4.8041,-4.8084,-4.8102,-4.8074,-4.8168,-4.8185,-4.8271,-4.83,-4.8317,-4.8335,-4.8302,-4.8429,-4.8441,-4.8452,-4.8493,-4.8509,-4.8318,-4.8318,-4.8317,-4.8317,0,-4.7973,-4.8025,-4.8072,-4.8117,-4.8147,-4.8207,-4.8208,-4.8239,-4.8229,-4.8235,-4.8306,-4.8326,-4.837,-4.839,-4.838,-4.8475,-4.846,-4.8431,-4.8381,-4.8473,-4.8512,-4.8527,-4.8324,-4.8323,-4.8322,-4.832,0,0,-4.8115,-4.8155,-4.8172,-4.8193,-4.8226,-4.8265,-4.8324,-4.8369,-4.8397,-4.8427,-4.8476,-4.8541,-4.8515,-4.8538,-4.853,-4.8572,-4.8665,-4.8538,-4.8539,-4.8563,-4.8773,-4.8796,-4.8814,-4.8651,-4.8653,-4.8656,-4.8771,0,-4.8225,-4.8329,-4.8324,-4.8421,-4.8469,-4.8443,-4.8494,-4.852,-4.8526,-4.8568,-4.8574,-4.8621,-4.8582,-4.8597,-4.8637,-4.8646,-4.8708,-4.8637,-4.8697,-4.8699,-4.8692,-4.8834,-4.8858,-4.8966,-4.8786,-4.8788,-4.879,0,-4.8367,-4.8404,-4.8507,-4.8534,-4.8554,-4.8601,-4.8642,-4.8682,-4.871,-4.8712,-4.874,-4.8725,-4.8785,-4.8733,-4.8814,-4.8767,-4.879,-4.8798,-4.8802,-4.8809,-4.8751,-4.8845,-4.9,-4.9017,-4.8813,-4.8812,-4.881,0,-4.8462,-4.8537,-4.8609,-4.8627,-4.866,-4.8694,-4.8709,-4.8735,-4.8762,-4.8798,-4.8816,-4.8858,-4.8881,-4.8913,-4.891,-4.8872,-4.8993,-4.8941,-4.8997,-4.8997,-4.9025,-4.9023,-4.9187,-4.9038,-4.9038,-4.9037,-4.9037,0,-4.8586,-4.865,-4.8653,-4.8697,-4.8768,-4.8761,-4.8832,-4.8843,-4.8866,-4.8912,-4.889,-4.8934,-4.8926,-4.8969,-4.8967,-4.9036,-4.9046,-4.9049,-4.9048,-4.9052,-4.9052,-4.9069,-4.9062,-4.9042,-4.9041,-4.904,-4.9039,0,-4.8705,-4.8709,-4.8786,-4.8811,-4.8819,-4.8871,-4.8893,-4.8934,-4.8939,-4.8998,-4.9011,-4.9019,-4.9068,-4.9068,-4.9124,-4.9123,-4.9208,-4.9197,-4.9199,-4.9197,-4.9254,-4.9249,-4.9435,-4.946,-4.9293,-4.9295,-4.9296,0,-4.8784,-4.8834,-4.8865,-4.8895,-4.8913,-4.8961,-4.899,-4.8985,-4.9015,-4.9052,-4.909,-4.9138,-4.9176,-4.9257,-4.9267,-4.931,-4.9301,-4.9363,-4.9307,-4.931,-4.9304,-4.9302,-4.9307,-4.9375,-4.9376,-4.9378,-4.9379,0,-4.8926,-4.8926,-4.8969,-4.9014,-4.9049,-4.9083,-4.9115,-4.914,-4.9138,-4.9174,-4.9226,-4.9255,-4.9314,-4.9362,-4.9404,-4.9418,-4.9399,-4.9397,-4.9412,-4.9418,-4.9417,-4.942,-4.923,-4.9393,-4.9391,-4.939,-4.939,-4.9389,-4.9029,-4.9072,-4.9102,-4.9151,-4.9174,-4.9205,-4.9246,-4.9257,-4.93,-4.9348,-4.9342,-4.94,-4.9427,-4.9482,-4.95,-4.9545,-4.9523,-4.9545,-4.9551,-4.9557,-4.9564,-4.9409,-4.9552,-4.9552,-4.9551,-4.9551,-4.9551,0,-4.9171,-4.9189,-4.9234,-4.928,-4.9319,-4.9298,-4.9332,-4.9366,-4.9417,-4.9445,-4.9484,-4.9544,-4.959,-4.9605,-4.965,-4.9683,-4.9675,-4.9695,-4.9693,-4.9697,-4.958,-4.9563,-4.9701,-4.9701,-4.9701,-4.9701,-4.9701,-4.97,-4.9249,-4.9322,-4.9326,-4.941,-4.9427,-4.9484,-4.9506,-4.9534,-4.9556,-4.9625,-4.9664,-4.9673,-4.9696,-4.9743,-4.9785,-4.9788,-4.9806,-4.983,-4.983,-4.972,-4.9705,-4.9691,-4.9675,-4.9834,-4.9834,-4.9943,-4.9944,-4.9945]}]]